Retour au catalogue

FALCON 9 R/B

ActifMEO
NORAD 58348·ROCKET BODY·🇺🇸 United States

Lancé Nov 12, 2023 depuis Cape Canaveral Space Force Station

Loading…

Prochains Passages (prochaines 24 heures)

TLE

FraisSource: Space-Track

Époque: Sep 14, 2026, 13:51 UTC

1 58348U 23175C   26257.57760694  .00000029  00000-0 -88866-2 0  9992
2 58348   9.0188  86.5320 1974411 352.2265   5.1211  7.34839601 76264

Suivez FALCON 9 R/B en temps réel avec AllMySat

Download on the App Store